Terminal Aerodrome Forecast
Issued by NWS State College, PA

Home | Current Version | Previous Version | Text Only | Print | Product List | Glossary On
Versions: 1 2 3 4 5 6 7 8 9 10 11 12 13 14 15 16 17 18 19 20 21 22 23 24 25 26 27 28 29 30 31 32 33 34 35 36 37 38 39 40 41 42 43 44 45 46 47 48 49 50
000
FTUS41 KCTP 280104 AAA
TAFMDT
TAF AMD
KMDT 280104Z 2801/2824 19005KT 4SM BR VCTS BKN035CB OVC120
      TEMPO 2801/2803 1SM +TSRA BR OVC030CB
     FM280700 24005KT 5SM BR VCSH BKN045
     FM281100 27012KT P6SM SCT060
     FM281700 30014KT P6SM VCSH BKN060=

USA.gov is the U.S. government's official web portal to all federal, state and local government web resources and services.